Weather History for Batman, Turkey

Change the Weather History Date:

Thursday, November 28, 2013

  Actual Average (LTCC) Record (LTCC)
Temperature  
Mean Temperature 50 °F -  
Max Temperature 60 °F 53 °F 69 °F (2010)
Min Temperature 41 °F 34 °F 21 °F (2004)
Degree Days  
Heating Degree Days 14    
Moisture  
Dew Point 47 °F    
Average Humidity 89    
Maximum Humidity 100    
Minimum Humidity 59    
Precipitation  
Precipitation 0.00 in - - ()
Sea Level Pressure  
Sea Level Pressure 30.06 in    
Wind  
Wind Speed 4 mph ()    
Max Wind Speed 13 mph    
Max Gust Speed -    
Visibility 5.6 miles    
Events Fog , Rain , Thunderstorm    
Averages and records for this station are not official NWS values.
T = Trace of Precipitation, MM = Missing Value Source: Averaged Metar Reports

Daily Weather History Graph

Daily Weather History Graph

Search for Another Location

Airport:

Trip Planner

Search our weather history database for the weather conditions in past years. The results will help you decide how hot, cold, wet, or windy it might be!

Date:

Astronomy

Nov. 28, 2013 Rise Set
Actual Time 6:09 AM EET 3:57 PM EET
Civil Twilight 5:40 AM EET 4:26 PM EET
Nautical Twilight 5:08 AM EET 4:58 PM EET
Astronomical Twilight 4:36 AM EET 5:30 PM EET
Moon 12:54 AM EET (11/28) 12:50 PM EET (11/28)
Length of Visible Light 10h 45m
Length of Day
9h 47m
Waning Crescent, 25% of the Moon is Illuminated
Nov 28
Waning Crescent
Dec 3
New
Dec 9
First Quarter
Dec 17
Full
Dec 25
Last Quarter

Hourly Weather History & Observations

Time (EET) Temp. Windchill Dew Point Humidity Pressure Visibility Wind Dir Wind Speed Gust Speed Precip Events Conditions
12:20 AM 51.8 °F - 48.2 °F 88% 30.09 in 6.2 mi Variable 2.3 mph - N/A   Mostly Cloudy
12:36 AM 51.8 °F - 48.2 °F 88% 30.09 in 6.2 mi WNW 2.3 mph - N/A Rain Light Rain
12:50 AM 51.8 °F - 48.2 °F 88% 30.09 in 6.2 mi Variable 2.3 mph - N/A Rain Light Rain
1:20 AM 51.8 °F - 50.0 °F 94% 30.09 in 6.2 mi Variable 2.3 mph - N/A   Mostly Cloudy
1:50 AM 51.8 °F - 50.0 °F 94% 30.09 in 6.2 mi WNW 3.5 mph - N/A   Mostly Cloudy
2:20 AM 51.8 °F - 50.0 °F 94% 30.09 in 6.2 mi Variable 3.5 mph - N/A   Mostly Cloudy
2:50 AM 51.8 °F - 50.0 °F 94% 30.09 in 6.2 mi ENE 4.6 mph - N/A   Mostly Cloudy
3:20 AM 51.8 °F - 50.0 °F 94% 30.09 in 6.2 mi NNE 5.8 mph - N/A   Mostly Cloudy
3:50 AM 51.8 °F - 50.0 °F 94% 30.09 in 6.2 mi ENE 5.8 mph - N/A   Mostly Cloudy
4:20 AM 51.8 °F - 48.2 °F 88% 30.06 in 6.2 mi ENE 4.6 mph - N/A   Scattered Clouds
4:50 AM 50.0 °F - 48.2 °F 94% 30.06 in 6.2 mi North 5.8 mph - N/A   Scattered Clouds
5:20 AM 48.2 °F - 46.4 °F 93% 30.06 in 6.2 mi NE 6.9 mph - N/A   Mostly Cloudy
5:50 AM 46.4 °F 42.9 °F 46.4 °F 100% 30.06 in 6.2 mi NNE 6.9 mph - N/A   Mostly Cloudy
6:20 AM 48.2 °F - 46.4 °F 93% 30.06 in 6.2 mi NE 3.5 mph - N/A   Mostly Cloudy
6:50 AM 50.0 °F - 46.4 °F 87% 30.06 in 6.2 mi WSW 3.5 mph - N/A   Mostly Cloudy
7:20 AM 51.8 °F - 48.2 °F 88% 30.06 in 5.6 mi NNW 5.8 mph - N/A   Mostly Cloudy
7:50 AM 55.4 °F - 48.2 °F 77% 30.06 in 6.2 mi North 4.6 mph - N/A   Mostly Cloudy
8:20 AM 55.4 °F - 48.2 °F 77% 30.06 in 6.2 mi North 8.1 mph - N/A   Mostly Cloudy
8:50 AM 55.4 °F - 48.2 °F 77% 30.06 in 6.2 mi North 6.9 mph - N/A   Mostly Cloudy
9:20 AM 59.0 °F - 50.0 °F 72% 30.06 in 6.2 mi NNE 5.8 mph - N/A   Mostly Cloudy
9:50 AM 60.8 °F - 48.2 °F 63% 30.04 in 6.2 mi Variable 1.2 mph - N/A   Mostly Cloudy
10:20 AM 60.8 °F - 46.4 °F 59% 30.04 in 6.2 mi NW 6.9 mph - N/A   Mostly Cloudy
10:50 AM 57.2 °F - 44.6 °F 63% 30.04 in 6.2 mi North 9.2 mph - N/A Rain Light Rain Showers
11:20 AM 55.4 °F - 44.6 °F 67% 30.04 in 6.2 mi NNE 12.7 mph - N/A Rain , Thunderstorm Light Thunderstorms and Rain
11:41 AM 51.8 °F - 46.4 °F 82% 30.04 in 3.1 mi North 12.7 mph - N/A Rain , Thunderstorm Thunderstorms and Rain
11:50 AM 50.0 °F - 48.2 °F 94% 30.04 in 5.0 mi North 9.2 mph - N/A Rain , Thunderstorm Light Thunderstorms and Rain
12:20 PM 51.8 °F - 46.4 °F 82% 30.04 in 6.2 mi NNW 6.9 mph - N/A Rain , Thunderstorm Light Thunderstorms and Rain
12:50 PM 51.8 °F - 48.2 °F 88% 30.06 in 3.7 mi West 6.9 mph - N/A Rain , Thunderstorm Thunderstorms and Rain
1:20 PM 51.8 °F - 50.0 °F 94% 30.04 in 5.6 mi West 6.9 mph - N/A Rain , Thunderstorm Light Thunderstorms and Rain
1:50 PM 51.8 °F - 50.0 °F 94% 30.04 in 6.2 mi South 6.9 mph - N/A Rain , Thunderstorm Light Thunderstorms and Rain
2:20 PM 51.8 °F - 50.0 °F 94% 30.04 in 6.2 mi ESE 5.8 mph - N/A   Mostly Cloudy
2:50 PM 51.8 °F - 48.2 °F 88% 30.01 in 6.2 mi SE 5.8 mph - N/A   Mostly Cloudy
3:20 PM 53.6 °F - 50.0 °F 88% 30.01 in 6.2 mi SE 5.8 mph - N/A   Scattered Clouds
3:50 PM 55.4 °F - 51.8 °F 88% 30.01 in 6.2 mi West 5.8 mph - N/A   Scattered Clouds
4:20 PM 53.6 °F - 51.8 °F 94% 29.98 in 6.2 mi SSW 5.8 mph - N/A   Mostly Cloudy
4:50 PM 50.0 °F - 48.2 °F 94% 30.04 in 6.2 mi Variable 1.2 mph - N/A   Scattered Clouds
5:20 PM 48.2 °F - 46.4 °F 93% 30.04 in 6.2 mi West 4.6 mph - N/A   Scattered Clouds
5:50 PM 50.0 °F - 48.2 °F 94% 30.06 in 6.2 mi Variable 1.2 mph - N/A   Mostly Cloudy
6:20 PM 50.0 °F - 48.2 °F 94% 30.06 in 6.2 mi SE 2.3 mph - N/A   Mostly Cloudy
6:50 PM 50.0 °F - 48.2 °F 94% 30.06 in 6.2 mi SE 3.5 mph - N/A   Scattered Clouds
7:20 PM 48.2 °F - 46.4 °F 93% 30.06 in 6.2 mi Variable 3.5 mph - N/A   Scattered Clouds
7:50 PM 46.4 °F - 44.6 °F 93% 30.06 in 6.2 mi Variable 1.2 mph - N/A   Scattered Clouds
8:20 PM 46.4 °F - 44.6 °F 93% 30.06 in - Variable 2.3 mph - N/A   Clear
8:50 PM 44.6 °F - 44.6 °F 100% 30.09 in - Calm Calm - N/A   Clear
9:20 PM 44.6 °F - 44.6 °F 100% 30.09 in 3.7 mi Variable 2.3 mph - N/A   Mist
9:35 PM 42.8 °F - 42.8 °F 100% 30.09 in 2.5 mi NNE 2.3 mph - N/A   Mist
9:50 PM 42.8 °F 40.1 °F 42.8 °F 100% 30.09 in 1.2 mi NNE 4.6 mph - N/A Fog Patches of Fog
10:20 PM 41.0 °F 37.1 °F 41.0 °F 100% 30.09 in 3.7 mi NE 5.8 mph - N/A   Unknown
10:50 PM 42.8 °F 40.1 °F 42.8 °F 100% 30.09 in 2.8 mi NNE 4.6 mph - N/A   Mist
11:20 PM 44.6 °F 43.1 °F 44.6 °F 100% 30.09 in 2.5 mi NE 3.5 mph - N/A   Mostly Cloudy
11:50 PM 46.4 °F - 46.4 °F 100% 30.06 in 3.7 mi Calm Calm - N/A   Mostly Cloudy